Regional Weather Roundup
Issued by NWS Cleveland, OH

Home | Current Version | Previous Version | Graphics & Text | Print | Product List | Glossary On
Versions: 1 2 3 4 5 6 7 8 9 10 11 12 13 14 15 16 17 18 19 20 21 22 23 24 25 26 27 28 29 30 31 32 33 34 35 36 37 38 39 40 41 42 43 44 45 46 47 48 49 50
000
ASUS41 KCLE 212210
RWRCLE
OHIO REGIONAL WEATHER ROUNDUP
NATIONAL WEATHER SERVICE CLEVELAND, OH
500 PM EST SUN DEC 21 2014

NOTE: "FAIR" INDICATES FEW OR NO CLOUDS BELOW 12,000 FEET WITH NO
SIGNIFICANT WEATHER AND/OR OBSTRUCTIONS TO VISIBILITY.

OHZ001>008-015>018-024>027-034-035-043-044-212300-
   NORTHWEST OHIO

CITY           SKY/WX    TMP DP  RH WIND       PRES   REMARKS
DEFIANCE       CLOUDY    34  26  72 E7        30.21F WCI  28
FINDLAY        PTCLDY    34  25  69 E6        30.19F WCI  29
TOLEDO EXPRESS CLOUDY    33  25  72 SE3       30.22S
TOLEDO EXEC    MOCLDY    32  24  72 CALM      30.23S
LIMA           PTCLDY    35  25  66 E3        30.18F
$$

OHZ009>014-019>023-028>033-038-089-212300-
   NORTHEAST OHIO

CITY           SKY/WX    TMP DP  RH WIND       PRES   REMARKS
CLE-HOPKINS    CLOUDY    30  22  72 SE7       30.28R WCI  23
CLE-LAKEFRONT  CLOUDY    33  21  61 SE6       30.26R WCI  28
CUY CO. ARPT   CLOUDY    32  23  69 S9        30.26R WCI  24
LORAIN-ELYRIA  PTCLDY    30  23  75 SE7       30.25R WCI  23
ASHTABULA      CLOUDY    31  22  69 SE3       30.26S
AKRON-CANTON   CLOUDY    31  20  63 SE7       30.23S WCI  24
WOOSTER        CLOUDY    29  22  75 SE6       30.24S WCI  23
MANSFIELD      PTCLDY    30  22  72 E6        30.19F WCI  24
YOUNGSTOWN     CLOUDY    30  21  69 SE6       30.24R WCI  24
$$

OHZ042-051>053-060>062-070>072-077>081-212300-
  SOUTHWEST OHIO

CITY           SKY/WX    TMP DP  RH WIND       PRES   REMARKS
CINC-COVINGTON MOCLDY    34  24  67 E6        30.17S WCI  29
CINC-LUNKEN    PTCLDY    35  26  69 E5        30.21S
HAMILTON       PTCLDY    35  26  69 E6        30.20S
DAYTON         CLOUDY    35  26  69 SE8       30.18F WCI  29
WRIGHT-PAT AFB NOT AVBL
DAYTON GENERAL MOCLDY    35  26  69 SE5       30.17S
WILMINGTON     MOCLDY    32  25  75 SE7       30.17F WCI  26
$$

OHZ036-037-039>041-045>050-054>059-063>069-073>076-082>088-212300-
  CENTRAL AND SOUTHEAST OHIO

CITY           SKY/WX    TMP DP  RH WIND       PRES   REMARKS
COLUMBUS       CLOUDY    33  22  63 E7        30.21S WCI  27
OSU AIRPORT    PTCLDY    34  23  64 E5        30.20S WCI  30
BOLTON FIELD   MOCLDY    34  25  69 E5        30.20F WCI  30
RICKENBACK AFB PTCLDY    33  25  71 E5        30.21S WCI  28
NEWARK         PTCLDY    33  22  63 E5        30.21S WCI  29
MARION         PTCLDY    32  23  69 S7        30.20F HAZE    WCI  26
LANCASTER      PTCLDY    47  25  42 SE7       30.22S
ZANESVILLE     PTCLDY    32  23  69 NE3       30.23S
NEW PHILLY     MOCLDY    33  22  63 CALM      30.25S
$$



USA.gov is the U.S. government's official web portal to all federal, state and local government web resources and services.